FENGYUN 1C DEB *, 46995

Orbit data source: Space-Track

FENGYUN 1C DEB *, 46995 is space debris in SSO originally from a launch on Mon, 10 May 1999 UTC launched from the Taiyaun Space Center, China (TSC). Fengyun 1C debris stems from the Chinese weather satellite Fengyun-1C, which was intentionally destroyed by a Chinese anti-satellite missile in 2007. This event dramatically increased the amount of space debris, with thousands of trackable fragments posing hazards to satellites and human spaceflight. The Fengyun 1C debris cloud has become a focal point in discussions about space sustainability and the need for international regulations to prevent the creation of new debris.

Loading next visibility...
Identifier
46995, 1999-025EZV
Orbit
SSO
Country
Flag of CNCN / PRC
Related business
Manufacturer
Unknown
Mission
Spacecraft
Bus & Motor
Unknown
Mass
Unknown
Launch date (UTC)
1999-05-10 (27 years ago)
Launch vehicle
Unknown
Launch site
Taiyaun Space Center, China (TSC)
Object type
Payload
Rocket body
Debris
Shape & HBR
Unknown shape, 1.1 m
Radar Cross Section
Small (<0.1 m²)

Expand to show TLE details & history
Last TLE update: 1 day ago

TLE from 1 day ago
0 FENGYUN 1C DEB *
1 46995U 99025EZV 26235.62929410  .00001941  00000-0  14544-2 0  9994
2 46995  98.5911 302.3071 0186964 141.8851 219.5703 13.87693003639887
Epoch: 2026-08-23T15:06Z
TLE epoch observation values (Epoch: 2026-08-23T15:06:11.010Z)
Latitude
-0.00006°
Longitude
103.83863°
Altitude
1,046.061 km
Speed
7.275 km/s
True Right ascension
20h 09m 13s
True Declination
0° 00' 00"
Sunlit
Object was in full shadow at epoch
Visualization orbit readout
Latitude
Unknown
Longitude
Unknown
Altitude
Unknown
Speed
Unknown
Apparent Right ascension
Unknown
Apparent Declination
Unknown
Sunlit
N/A
Visualization observer readout
Local Sidereal Time
16:38:05
Azimuth
Unknown
Elevation
Unknown
Doppler factor
Unknown
Orbital elements
Apogee altitude
1,070.631 km
Perigee altitude
797.213 km
Semi-major axis
7,312.059 km
Eccentricity
0.0187
Inclination
98.5911°
RAAN
302.3071°
Arg. of periapsis
141.8851°
True anomaly
218.2298°
Mean anomaly
219.5703°
Eccentric anomaly
218.89764°
Mean motion
3.47123 °/min
Orbital period
103.71 mins
BSTAR
0.0014544
Loading maneuver chart data...
Computing Atmospheric mass density...
Loading historical data...
Loading historical data...
Loading historical data...
Loading historical data...
Loading historical data...
Loading historical data...
Loading historical data...

Documentation

Showing up to 5 results
|